Hourly Weather Homa Bay

Today, 11 April, Sunday

Time Temperature Precipitation Wind Pressure Humidity
00:00 +20°C° 0.3 mm 2 mps 659 mmHg 92%
01:00 +19°C° 0.3 mm 2 mps 658 mmHg 92%
02:00 +19°C° 0 mm 2 mps 658 mmHg 91%
03:00 +19°C° 0 mm 2 mps 658 mmHg 90%
04:00 +19°C° 0 mm 2 mps 658 mmHg 90%
05:00 +19°C° 0 mm 2 mps 658 mmHg 89%
06:00 +21°C° 0 mm 2 mps 659 mmHg 83%
07:00 +23°C° 0 mm 1 mps 660 mmHg 77%
08:00 +24°C° 0 mm 1 mps 660 mmHg 71%
09:00 +26°C° 0 mm 2 mps 660 mmHg 63%
10:00 +28°C° 0 mm 2 mps 661 mmHg 55%
11:00 +30°C° 0 mm 2 mps 661 mmHg 46%
12:00 +29°C° 0 mm 2 mps 660 mmHg 51%
13:00 +29°C° 0 mm 3 mps 659 mmHg 56%
14:00 +28°C° 0 mm 3 mps 658 mmHg 61%
15:00 +26°C° 0.6 mm 3 mps 658 mmHg 70%
16:00 +25°C° 0.6 mm 2 mps 658 mmHg 79%
17:00 +23°C° 0.6 mm 2 mps 658 mmHg 88%
18:00 +23°C° 0.4 mm 2 mps 658 mmHg 88%
19:00 +22°C° 0.4 mm 1 mps 659 mmHg 87%
20:00 +22°C° 0.4 mm 1 mps 659 mmHg 87%
21:00 +21°C° 0.2 mm 1 mps 659 mmHg 88%
22:00 +21°C° 0.2 mm 1 mps 660 mmHg 89%
23:00 +19°C° 0.2 mm 2 mps 660 mmHg 89%

Tomorrow, 12 April, Monday

Time Temperature Precipitation Wind Pressure Humidity
00:00 +20°C° 0.1 mm 1 mps 659 mmHg 89%
01:00 +20°C° 0.1 mm 1 mps 659 mmHg 89%
02:00 +20°C° 0.1 mm 1 mps 659 mmHg 88%
03:00 +20°C° 0 mm 1 mps 659 mmHg 89%
04:00 +18°C° 0 mm 2 mps 659 mmHg 89%
05:00 +18°C° 0 mm 2 mps 659 mmHg 90%
06:00 +21°C° 0 mm 1 mps 660 mmHg 85%
07:00 +22°C° 0 mm 1 mps 661 mmHg 80%
08:00 +24°C° 0 mm 1 mps 661 mmHg 74%
09:00 +26°C° 0 mm 1 mps 662 mmHg 67%
10:00 +27°C° 0 mm 1 mps 662 mmHg 60%
11:00 +29°C° 0 mm 1 mps 662 mmHg 53%
12:00 +29°C° 0 mm 2 mps 661 mmHg 54%
13:00 +29°C° 0 mm 3 mps 660 mmHg 56%
14:00 +29°C° 0 mm 3 mps 659 mmHg 57%
15:00 +27°C° 0.5 mm 3 mps 659 mmHg 65%
16:00 +26°C° 0.5 mm 3 mps 659 mmHg 74%
17:00 +24°C° 0.5 mm 3 mps 659 mmHg 82%
18:00 +23°C° 0.8 mm 2 mps 659 mmHg 84%
19:00 +23°C° 0.8 mm 1 mps 659 mmHg 86%
20:00 +22°C° 0.8 mm 1 mps 660 mmHg 87%
21:00 +22°C° 0.4 mm 1 mps 660 mmHg 86%
22:00 +22°C° 0.4 mm 1 mps 660 mmHg 85%
23:00 +21°C° 0.4 mm 2 mps 660 mmHg 84%

Day after tomorrow, 13 April, Tuesday

Time Temperature Precipitation Wind Pressure Humidity
00:00 +21°C° 0.1 mm 2 mps 660 mmHg 84%
01:00 +20°C° 0.1 mm 2 mps 659 mmHg 84%
02:00 +20°C° 0.1 mm 2 mps 659 mmHg 84%
03:00 +20°C° 0.1 mm 2 mps 659 mmHg 84%
04:00 +21°C° 0.1 mm 1 mps 659 mmHg 84%
05:00 +20°C° 0.1 mm 1 mps 660 mmHg 85%
06:00 +22°C° 0 mm 1 mps 660 mmHg 80%
07:00 +23°C° 0 mm 1 mps 661 mmHg 75%
08:00 +24°C° 0 mm 1 mps 662 mmHg 70%
09:00 +26°C° 0.1 mm 1 mps 662 mmHg 65%
10:00 +27°C° 0.1 mm 1 mps 661 mmHg 60%
11:00 +29°C° 0.1 mm 2 mps 661 mmHg 55%
12:00 +29°C° 0.1 mm 2 mps 661 mmHg 56%
13:00 +29°C° 0.1 mm 3 mps 660 mmHg 57%
14:00 +29°C° 0.1 mm 3 mps 659 mmHg 57%
15:00 +27°C° 1.2 mm 3 mps 659 mmHg 67%
16:00 +25°C° 1.2 mm 2 mps 659 mmHg 77%
17:00 +23°C° 1.2 mm 2 mps 659 mmHg 87%
18:00 +21°C° 1.8 mm 2 mps 659 mmHg 89%
19:00 +20°C° 1.8 mm 2 mps 660 mmHg 92%
20:00 +19°C° 1.8 mm 2 mps 660 mmHg 94%
21:00 +19°C° 0.7 mm 2 mps 660 mmHg 94%
22:00 +20°C° 0.7 mm 1 mps 661 mmHg 94%
23:00 +18°C° 0.7 mm 0 mps 661 mmHg 93%

14 April, Wednesday

Time Temperature Precipitation Wind Pressure Humidity
00:00 +20°C° 1.4 mm 1 mps 661 mmHg 95%
01:00 +20°C° 1.4 mm 1 mps 660 mmHg 96%
02:00 +20°C° 1.4 mm 1 mps 660 mmHg 97%
03:00 +20°C° 1.5 mm 1 mps 660 mmHg 97%
04:00 +20°C° 1.5 mm 1 mps 661 mmHg 96%
05:00 +20°C° 1.5 mm 1 mps 661 mmHg 96%
06:00 +21°C° 0.6 mm 1 mps 661 mmHg 95%
07:00 +21°C° 0.6 mm 1 mps 662 mmHg 93%
08:00 +22°C° 0.6 mm 1 mps 662 mmHg 91%
09:00 +21°C° 1.2 mm 2 mps 662 mmHg 89%
10:00 +23°C° 1.2 mm 2 mps 662 mmHg 87%
11:00 +22°C° 1.2 mm 3 mps 662 mmHg 84%
12:00 +24°C° 0.5 mm 3 mps 661 mmHg 81%
13:00 +24°C° 0.5 mm 2 mps 661 mmHg 77%
14:00 +25°C° 0.5 mm 2 mps 660 mmHg 73%
15:00 +24°C° 0.1 mm 2 mps 660 mmHg 76%
16:00 +24°C° 0.1 mm 2 mps 660 mmHg 79%
17:00 +23°C° 0.1 mm 2 mps 660 mmHg 82%
18:00 +21°C° 0.2 mm 2 mps 660 mmHg 85%
19:00 +21°C° 0.2 mm 1 mps 660 mmHg 88%
20:00 +20°C° 0.2 mm 1 mps 660 mmHg 91%
21:00 +20°C° 0.8 mm 1 mps 661 mmHg 92%
22:00 +20°C° 0.8 mm 1 mps 661 mmHg 93%
23:00 +20°C° 0.8 mm 1 mps 661 mmHg 94%

15 April, Thursday

Time Temperature Precipitation Wind Pressure Humidity
00:00 +20°C° 0.4 mm 1 mps 661 mmHg 94%
01:00 +20°C° 0.4 mm 1 mps 660 mmHg 95%
02:00 +20°C° 0.4 mm 1 mps 660 mmHg 95%
03:00 +20°C° 0 mm 1 mps 660 mmHg 94%
04:00 +20°C° 0 mm 1 mps 660 mmHg 94%
05:00 +19°C° 0 mm 2 mps 660 mmHg 93%
06:00 +21°C° 0 mm 1 mps 661 mmHg 88%
07:00 +22°C° 0 mm 1 mps 661 mmHg 84%
08:00 +23°C° 0 mm 1 mps 661 mmHg 79%
09:00 +25°C° 0 mm 1 mps 661 mmHg 71%
10:00 +27°C° 0 mm 1 mps 661 mmHg 64%
11:00 +29°C° 0 mm 1 mps 661 mmHg 56%
12:00 +29°C° 0.3 mm 2 mps 661 mmHg 59%
13:00 +28°C° 0.3 mm 3 mps 660 mmHg 61%
14:00 +28°C° 0.3 mm 3 mps 659 mmHg 64%
15:00 +27°C° 0.5 mm 3 mps 659 mmHg 70%
16:00 +25°C° 0.5 mm 2 mps 659 mmHg 76%
17:00 +24°C° 0.5 mm 2 mps 659 mmHg 82%
18:00 +23°C° 0.4 mm 2 mps 659 mmHg 84%
19:00 +23°C° 0.4 mm 1 mps 660 mmHg 86%
20:00 +22°C° 0.4 mm 1 mps 660 mmHg 88%
21:00 +22°C° 0.1 mm 1 mps 660 mmHg 88%
22:00 +20°C° 0.1 mm 2 mps 660 mmHg 88%
23:00 +20°C° 0.1 mm 2 mps 660 mmHg 89%

16 April, Friday

Time Temperature Precipitation Wind Pressure Humidity
00:00 +20°C° 0.4 mm 2 mps 660 mmHg 89%
01:00 +20°C° 0.4 mm 2 mps 659 mmHg 89%
02:00 +20°C° 0.4 mm 2 mps 659 mmHg 89%
03:00 +20°C° 0.1 mm 1 mps 659 mmHg 88%
04:00 +20°C° 0.1 mm 1 mps 659 mmHg 88%
05:00 +20°C° 0.1 mm 1 mps 660 mmHg 87%
06:00 +22°C° 0 mm 1 mps 660 mmHg 83%
07:00 +23°C° 0 mm 1 mps 661 mmHg 78%
08:00 +25°C° 0 mm 1 mps 661 mmHg 73%
09:00 +26°C° 0 mm 1 mps 661 mmHg 67%
10:00 +28°C° 0 mm 2 mps 661 mmHg 61%
11:00 +29°C° 0 mm 2 mps 661 mmHg 55%
12:00 +29°C° 0.1 mm 2 mps 661 mmHg 55%
13:00 +29°C° 0.1 mm 3 mps 660 mmHg 56%
14:00 +29°C° 0.1 mm 4 mps 659 mmHg 56%
15:00 +28°C° 0.4 mm 4 mps 659 mmHg 65%
16:00 +26°C° 0.4 mm 3 mps 659 mmHg 74%
17:00 +25°C° 0.4 mm 3 mps 659 mmHg 83%
18:00 +22°C° 2.1 mm 3 mps 659 mmHg 86%
19:00 +21°C° 2.1 mm 2 mps 660 mmHg 89%
20:00 +20°C° 2.1 mm 2 mps 660 mmHg 92%
21:00 +20°C° 1.1 mm 2 mps 660 mmHg 92%
22:00 +20°C° 1.1 mm 2 mps 660 mmHg 91%
23:00 +19°C° 1.1 mm 2 mps 660 mmHg 90%
Show more